Terminal Aerodrome Forecast
Issued by NWS

Home | Current Version | Previous Version | Text Only | Print | Product List | Glossary On
Versions: 1 2 3 4 5 6 7 8 9 10 11 12 13 14 15 16 17 18 19 20
349
FTUS43 KGRR 302325
TAFMKG
TAF
KMKG 302325Z 3100/3124 06007KT P6SM VCSH OVC040
     FM310300 08009KT 5SM BR BKN015
     FM310900 07007KT 5SM BR OVC007
     FM311500 03006KT P6SM BKN015
     FM312100 01007KT P6SM OVC025=

USA.gov is the U.S. government's official web portal to all federal, state and local government web resources and services.